Regional Weather Roundup
Issued by NWS

Home | Current Version | Previous Version | Graphics & Text | Print | Product List | Glossary On
Versions: 1 2 3 4 5 6 7 8 9 10 11 12 13 14 15 16 17 18 19 20 21 22 23 24 25 26 27 28 29 30 31 32 33 34 35 36 37 38 39 40 41 42 43 44 45 46 47 48 49 50
000
ASUS45 KCYS 270010
RWRWY

WYOMING REGIONAL WEATHER ROUNDUP
NATIONAL WEATHER SERVICE CHEYENNE WY
600 PM MDT THU MAR 26 2015

NOTE:  "FAIR" INDICATES FEW OR NO CLOUDS BELOW 12,000 FEET
WITH NO SIGNIFICANT WEATHER AND/OR OBSTRUCTIONS TO VISIBILITY.

WYZ001-270100-
YELLOWSTONE NATIONAL PARK

CITY           SKY/WX    TMP DP  RH WIND       PRES   REMARKS
LK YELLOWSTONE   N/A     40  29  64 VRB3      30.36R
6HR MIN TEMP:  36; 6HR MAX TEMP:  41;

W YELLOWSTONE  NOT AVBL

$$
WYZ002>013-054>058-071-098>099-270100-
NORTHERN WYOMING

CITY           SKY/WX    TMP DP  RH WIND       PRES   REMARKS
JACKSON        MOSUNNY   46  30  53 CALM      30.32S
CODY           FAIR      61  28  29 NW20G28   30.14S
GREYBULL       CLOUDY    61  29  29 W8        30.10R
6HR MIN TEMP:  52; 6HR MAX TEMP:  62;

WORLAND        CLOUDY    60  29  30 E5        30.11S
6HR MIN TEMP:  51; 6HR MAX TEMP:  63;

SHERIDAN       CLOUDY    57  34  41 N15       30.08S
6HR MIN TEMP:  52; 6HR MAX TEMP:  59;

BUFFALO        CLOUDY    53  34  48 N10       30.11R
6HR MIN TEMP:  47; 6HR MAX TEMP:  55;

GILLETTE       CLOUDY    52  33  48 N10       30.08F
6HR MIN TEMP:  44; 6HR MAX TEMP:  53;

HULETT         DRIZZLE   45  32  61 N3        30.12S
NEWCASTLE      FAIR      46  30  53 N15G22    30.10F

$$
WYZ014>020-022>026-101>103-270100-
CENTRAL WYOMING

CITY           SKY/WX    TMP DP  RH WIND       PRES   REMARKS
BIG PINEY      FAIR      50  27  40 N29G39    30.30R
6HR MIN TEMP:  49; 6HR MAX TEMP:  55;

PINEDALE       FAIR      46  30  53 W21G31    30.30R
DUBOIS         FAIR      45  28  53 NW25      30.26R
LANDER         FAIR      61  27  27 N22G30    30.11R
6HR MIN TEMP:  54; 6HR MAX TEMP:  64;

RIVERTON       FAIR      60  25  26 E8        30.14R
6HR MIN TEMP:  52; 6HR MAX TEMP:  61;

CASPER         FAIR      55  28  35 W10       30.12S
6HR MIN TEMP:  49; 6HR MAX TEMP:  56;

DOUGLAS        CLOUDY    54  29  38 N8        30.12R
6HR MIN TEMP:  50; 6HR MAX TEMP:  55;


$$
WYZ021-027>030-104>119-270100-
SOUTHERN WYOMING

CITY           SKY/WX    TMP DP  RH WIND       PRES   REMARKS
EVANSTON       FAIR      53  27  36 NW14      30.35R
6HR MIN TEMP:  46; 6HR MAX TEMP:  58;

KEMMERER       FAIR      48  30  49 W14G23    30.35R
FORT BRIDGER   FAIR      52  29  40 NW22      30.35S
ROCK SPRINGS   FAIR      54  26  34 W31G37    30.24S
6HR MIN TEMP:  47; 6HR MAX TEMP:  58;

DIXON          MOCLDY    58  25  28 W16       30.24S
RAWLINS        PTSUNNY   55  24  30 W17       30.18F
6HR MIN TEMP:  45; 6HR MAX TEMP:  57;

SARATOGA       CLOUDY    52  23  32 W18       30.21S
LARAMIE        CLOUDY    49  23  36 NW23      30.17S
6HR MIN TEMP:  43; 6HR MAX TEMP:  49;

CHEYENNE       PTSUNNY   53  23  31 N21G29    30.12S
6HR MIN TEMP:  47; 6HR MAX TEMP:  54;

TORRINGTON     CLOUDY    53  30  41 N21       30.09F
6HR MIN TEMP:  49; 6HR MAX TEMP:  54;

PINE BLUFFS    FAIR      52  25  35 N14G22    30.12S

$$



USA.gov is the U.S. government's official web portal to all federal, state and local government web resources and services.